This demonstration page uses our WeatherBlox Daily Observations layout. Learn more.

Left ArrowRight Arrow

39.01783, -85.05884

Hourly Observations for February 25, 2020

Temp ( °F °C ) Dew Point ( °F °C ) Humidity (%) Winds ( mph kmh ) Pressure ( in mb ) Visibility ( mi km ) Precip ( " mm )
12:05 am 00:05 Cloudy with Light Rain 43 6.1 42 5.6 97 97 ESE 6 9 29.73 1007 1.5 2.41401 0.01 0.254
12:52 am 00:52 Cloudy with Mist and Fog 44 6.7 42 5.6 93 93 E 5 7 29.7 1006 1 1.60934 0.03 0.762
1:52 am 01:52 Cloudy with Rain 44 6.7 42 5.6 93 93 ENE 8 13 29.69 1005 1.5 2.41401 0.04 1.016
2:52 am 02:52 Cloudy with Light Rain 43 6.1 41 5 93 93 E 8 13 29.67 1005 1.5 2.41401 0.06 1.524
3:52 am 03:52 Cloudy with Light Rain 43 6.1 41 5 93 93 E 8 13 29.66 1004 1.5 2.41401 0.01 0.254
4:20 am 04:20 Cloudy with Rain 43 6.1 41 5 93 93 ENE 9 15 29.68 1005 1 1.60934 0.01 0.254
4:52 am 04:52 Cloudy with Light Rain 43 6.1 41 5 93 93 ENE 9 15 29.66 1004 1 1.60934 0.03 0.762
5:33 am 05:33 Cloudy with Light Rain 44 6.7 41 5 89 89 ENE 9 15 29.68 1005 1 1.60934 0.01 0.254
5:52 am 05:52 Cloudy with Light Rain 44 6.7 42 5.6 93 93 ENE 12 19 29.66 1004 1 1.60934 0.01 0.254
6:20 am 06:20 Cloudy with Drizzle 44 6.7 42 5.6 93 93 NE 9 15 29.67 1005 2 3.21868 0.001 0.001
6:40 am 06:40 Cloudy with Drizzle 44 6.7 42 5.6 93 93 ENE 10 17 29.67 1005 0.75 1.207005 0.001 0.001
6:52 am 06:52 Cloudy with Drizzle 44 6.7 42 5.6 93 93 ENE 9 15 29.66 1004 0.75 1.207005 0.001 0.001
7:47 am 07:47 Cloudy with Light Rain 45 7 43 6 93 93 NE 8 13 29.7 1006 1 1.60934 0.02 0.508
7:52 am 07:52 Cloudy with Light Rain 44 6.7 42 5.6 93 93 NE 10 17 29.67 1005 1 1.60934 0.02 0.508
7:54 am 07:54 Cloudy with Light Rain 44 6.7 42 5.6 93 93 NE 10 17 29.7 1006 0.75 1.207005 0.001 0.001
8:39 am 08:39 Cloudy with Light Rain 44 6.7 42 5.6 93 93 NE 9 15 29.71 1006 0.25 0.402335 0.02 0.508
8:52 am 08:52 Cloudy with Light Rain 44 6.7 42 5.6 93 93 ENE 8 13 29.69 1005 0.25 0.402335 0.03 0.762
9:52 am 09:52 Cloudy with Mist and Fog 44 6.7 43 6.1 96 96 NE 7 11 29.7 1006 0.25 0.402335 0.04 1.016
10:52 am 10:52 Cloudy with Light Rain 45 7.2 43 6.1 93 93 NE 8 13 29.71 1006 0.25 0.402335 0.02 0.508
11:26 am 11:26 Cloudy with Mist and Fog 45 7.2 43 6.1 93 93 NE 8 13 29.74 1007 1.5 2.41401 0.01 0.254
11:52 am 11:52 Cloudy with Light Rain 46 7.8 44 6.7 93 93 NNE 7 11 29.72 1007 1.5 2.41401 0.01 0.254
12:20 pm 12:20 Cloudy with Light Rain 45 7.2 43 6.1 93 93 NNE 8 13 29.75 1007 0.75 1.207005 0.001 0.001
12:52 pm 12:52 Cloudy with Drizzle 46 7.8 43 6.1 89 89 NNE 8 13 29.73 1007 0.75 1.207005 0.001 0.001
1:18 pm 13:18 Cloudy with Drizzle 46 7.8 43 6.1 89 89 NE 9 15 29.75 1007 0.75 1.207005 0.01 0.254
1:52 pm 13:52 Cloudy with Drizzle 46 7.8 44 6.7 93 93 NE 6 9 29.72 1007 0.75 1.207005 0.01 0.254
1:59 pm 13:59 Cloudy with Drizzle 46 7.8 43 6.1 89 89 NNE 6 9 29.74 1007 0.75 1.207005 0.001 0.001
2:52 pm 14:52 Cloudy with Drizzle 46 7.8 44 6.7 93 93 N 3 6 29.74 1007 0.75 1.207005 0.001 0.001
3:52 pm 15:52 Cloudy with Drizzle 46 7.8 44 6.7 93 93 N 6 9 29.75 1008 1 1.60934 0.001 0.001
4:40 pm 16:40 Cloudy with Mist and Fog 45 7.2 43 6.1 93 93 N 6 9 29.79 1009 1 1.60934 0.001 0.001
4:52 pm 16:52 Cloudy with Mist and Fog 45 7.2 43 6.1 93 93 NNW 5 7 29.77 1008 1 1.60934 0.001 0.001
5:34 pm 17:34 Cloudy with Mist and Fog 45 7.2 43 6.1 93 93 NNW 6 9 29.81 1009 0.5 0.80467 0.001 0.001
5:52 pm 17:52 Cloudy with Mist and Fog 45 7.2 43 6.1 93 93 NNW 5 7 29.8 1009 0.5 0.80467 0.001 0.001
6:24 pm 18:24 Cloudy with Mist and Fog 44 6.7 42 5.6 93 93 NNW 6 9 29.83 1010 1 1.60934 0 0
6:52 pm 18:52 Cloudy with Drizzle 44 6.7 42 5.6 93 93 NNW 3 6 29.83 1010 1 1.60934 0.001 0.001
7:48 pm 19:48 Cloudy with Mist and Fog 45 7 43 6 93 93 NW 3 6 29.86 1011 0.25 0.402335 0.001 0.001
7:52 pm 19:52 Cloudy with Mist and Fog 44 6.7 42 5.6 93 93 NW 5 7 29.84 1011 0.25 0.402335 0.001 0.001
8:52 pm 20:52 Cloudy with Mist and Fog 44 6.7 42 5.6 93 93 NNW 5 7 29.85 1011 0.25 0.402335 0 0
9:52 pm 21:52 Mostly Cloudy with Mist and Fog 42 5.6 41 5 96 96 NNW 8 13 29.87 1011 0.25 0.402335 0 0
10:22 pm 22:22 Mostly Cloudy with Fog 41 5 40 4.4 96 96 N 6 9 29.9 1012 0.25 0.402335 0.001 0.001
10:34 pm 22:34 Mostly Cloudy with Fog 41 5 40 4.4 96 96 N 6 9 29.9 1012 0.25 0.402335 0.001 0.001
10:52 pm 22:52 Mostly Cloudy with Fog 41 5 40 4.4 96 96 VRB 7 11 29.87 1011 0.25 0.402335 0.001 0.001
11:28 pm 23:28 Mostly Cloudy with Fog 41 5 40 4.4 96 96 NNW 5 7 29.9 1012 0.25 0.402335 0 0
11:52 pm 23:52 Mostly Cloudy with Fog 41 5 39 3.9 93 93 NNW 7 11 29.86 1011 0.25 0.402335 0 0

Powered by AerisWeather